{"data":{"norad_id":63380,"epoch":"2026-05-25T03:14:07.224576Z","epoch_age_seconds":66608,"freshness":"FRESH","line1":"1 63380U 25063T   26145.13480584  .00007031  00000+0  24931-3 0  9999","line2":"2 63380  53.1600  57.3715 0001294  89.7586 270.3563 15.30198827 66411","mean_motion":15.30198827,"eccentricity":0.0001294,"inclination_deg":53.16,"raan_deg":57.3715,"arg_perigee_deg":89.7586,"mean_anomaly_deg":270.3563,"bstar":0.00024931,"rev_number":6641,"period_min":94.105417844501,"perigee_km":474.33174757714,"apogee_km":476.10539599912,"semimajor_km":6853.3555717881,"source":"CELESTRAK","updated_at":"2026-05-25T13:38:19.965404Z"}}